owner,sensor,date,latitude,longitude,vertical_datum,wind_speed,wind_to_direction,wind_speed_of_gust,qcFlag 
ADCP,ioos:station:wmo:42369:1,2015-08-01T00:00:00Z,27.2070,-90.2830,60.4,4.3,193.0,99.0,'11111222,11111222,11144222' 
ADCP,ioos:station:wmo:42369:1,2015-08-01T00:20:00Z,27.2070,-90.2830,60.4,4.3,193.0,99.0,'11111222,11111222,11144222' 
ADCP,ioos:station:wmo:42369:1,2015-08-01T00:40:00Z,27.2070,-90.2830,60.4,4.3,193.0,99.0,'11111222,11111222,11144222' 
ADCP,ioos:station:wmo:42369:1,2015-08-01T01:00:00Z,27.2070,-90.2830,60.4,4.3,193.0,99.0,'11111222,11111222,11144222' 
ADCP,ioos:station:wmo:42369:1,2015-08-01T01:20:00Z,27.2070,-90.2830,60.4,4.8,224.0,99.0,'11111222,11111222,11144222' 
ADCP,ioos:station:wmo:42369:1,2015-08-01T01:40:00Z,27.2070,-90.2830,60.4,3.1,237.0,99.0,'11111222,11111222,11144222' 
ADCP,ioos:station:wmo:42369:1,2015-08-01T02:00:00Z,27.2070,-90.2830,60.4,3.1,237.0,99.0,'11111222,11111222,11144222' 
ADCP,ioos:station:wmo:42369:1,2015-08-01T02:20:00Z,27.2070,-90.2830,60.4,3.8,245.0,99.0,'11111222,11111222,11144222' 
ADCP,ioos:station:wmo:42369:1,2015-08-01T02:40:00Z,27.2070,-90.2830,60.4,3.8,245.0,99.0,'11111222,11111222,11144222' 
ADCP,ioos:station:wmo:42369:1,2015-08-01T03:00:00Z,27.2070,-90.2830,60.4,3.9,264.0,99.0,'11111222,11111222,11144222' 
ADCP,ioos:station:wmo:42369:1,2015-08-01T03:20:00Z,27.2070,-90.2830,60.4,3.9,264.0,99.0,'11111222,11111222,11144222' 
ADCP,ioos:station:wmo:42369:1,2015-08-01T03:40:00Z,27.2070,-90.2830,60.4,3.5,260.0,99.0,'11111222,11111222,11144222' 
ADCP,ioos:station:wmo:42369:1,2015-08-01T04:00:00Z,27.2070,-90.2830,60.4,3.5,260.0,99.0,'11111222,11111222,11144222' 
ADCP,ioos:station:wmo:42369:1,2015-08-01T04:20:00Z,27.2070,-90.2830,60.4,2.3,268.0,99.0,'11111222,11111222,11144222' 
ADCP,ioos:station:wmo:42369:1,2015-08-01T04:40:00Z,27.2070,-90.2830,60.4,3.2,272.0,99.0,'11111222,11111222,11144222' 
ADCP,ioos:station:wmo:42369:1,2015-08-01T05:00:00Z,27.2070,-90.2830,60.4,3.2,272.0,99.0,'11111222,11111222,11144222' 
ADCP,ioos:station:wmo:42369:1,2015-08-01T05:20:00Z,27.2070,-90.2830,60.4,3.2,272.0,99.0,'11111222,11111222,11144222' 
ADCP,ioos:station:wmo:42369:1,2015-08-01T05:40:00Z,27.2070,-90.2830,60.4,1.8,238.0,99.0,'11111222,11111222,11144222' 
ADCP,ioos:station:wmo:42369:1,2015-08-01T06:00:00Z,27.2070,-90.2830,60.4,2.1,237.0,99.0,'11111222,11111222,11144222' 
ADCP,ioos:station:wmo:42369:1,2015-08-01T06:20:00Z,27.2070,-90.2830,60.4,2.2,231.0,99.0,'11111222,11111222,11144222' 
ADCP,ioos:station:wmo:42369:1,2015-08-01T06:40:00Z,27.2070,-90.2830,60.4,2.2,231.0,99.0,'11111222,11111222,11144222' 
ADCP,ioos:station:wmo:42369:1,2015-08-01T07:00:00Z,27.2070,-90.2830,60.4,3.7,225.0,99.0,'11111222,11111222,11144222' 
ADCP,ioos:station:wmo:42369:1,2015-08-01T07:20:00Z,27.2070,-90.2830,60.4,3.7,225.0,99.0,'11111222,11111222,11144222' 
ADCP,ioos:station:wmo:42369:1,2015-08-01T07:40:00Z,27.2070,-90.2830,60.4,4.6,266.0,99.0,'11111222,11111222,11144222' 
ADCP,ioos:station:wmo:42369:1,2015-08-01T08:00:00Z,27.2070,-90.2830,60.4,4.3,243.0,99.0,'11111222,11111222,11144222' 
ADCP,ioos:station:wmo:42369:1,2015-08-01T08:20:00Z,27.2070,-90.2830,60.4,4.3,243.0,99.0,'11111222,11111222,11144222' 
ADCP,ioos:station:wmo:42369:1,2015-08-01T08:40:00Z,27.2070,-90.2830,60.4,4.3,243.0,99.0,'11111222,11111222,11144222' 
ADCP,ioos:station:wmo:42369:1,2015-08-01T09:00:00Z,27.2070,-90.2830,60.4,4.3,243.0,99.0,'11111222,11111222,11144222' 
ADCP,ioos:station:wmo:42369:1,2015-08-01T09:20:00Z,27.2070,-90.2830,60.4,2.6,209.0,99.0,'11111222,11111222,11144222' 
ADCP,ioos:station:wmo:42369:1,2015-08-01T09:40:00Z,27.2070,-90.2830,60.4,2.6,209.0,99.0,'11111222,11111222,11144222' 
ADCP,ioos:station:wmo:42369:1,2015-08-01T10:00:00Z,27.2070,-90.2830,60.4,2.6,209.0,99.0,'11111222,11111222,11144222' 
ADCP,ioos:station:wmo:42369:1,2015-08-01T10:20:00Z,27.2070,-90.2830,60.4,1.4,177.0,99.0,'11111222,11111222,11144222' 
ADCP,ioos:station:wmo:42369:1,2015-08-01T10:40:00Z,27.2070,-90.2830,60.4,1.4,177.0,99.0,'11111222,11111222,11144222' 
ADCP,ioos:station:wmo:42369:1,2015-08-01T11:00:00Z,27.2070,-90.2830,60.4,1.1,274.0,99.0,'11111222,11111222,11144222' 
ADCP,ioos:station:wmo:42369:1,2015-08-01T11:20:00Z,27.2070,-90.2830,60.4,1.0,274.0,99.0,'11111222,11111222,11144222' 
ADCP,ioos:station:wmo:42369:1,2015-08-01T11:40:00Z,27.2070,-90.2830,60.4,1.0,274.0,99.0,'11111222,11111222,11144222' 
ADCP,ioos:station:wmo:42369:1,2015-08-01T12:00:00Z,27.2070,-90.2830,60.4,2.1,256.0,99.0,'11111222,11111222,11144222' 
ADCP,ioos:station:wmo:42369:1,2015-08-01T12:20:00Z,27.2070,-90.2830,60.4,2.3,229.0,99.0,'11111222,11111222,11144222' 
ADCP,ioos:station:wmo:42369:1,2015-08-01T12:40:00Z,27.2070,-90.2830,60.4,3.4,206.0,99.0,'11111222,11111222,11144222' 
ADCP,ioos:station:wmo:42369:1,2015-08-01T13:00:00Z,27.2070,-90.2830,60.4,3.4,211.0,99.0,'11111222,11111222,11144222' 
ADCP,ioos:station:wmo:42369:1,2015-08-01T13:20:00Z,27.2070,-90.2830,60.4,3.4,211.0,99.0,'11111222,11111222,11144222' 
ADCP,ioos:station:wmo:42369:1,2015-08-01T13:40:00Z,27.2070,-90.2830,60.4,3.4,211.0,99.0,'11111222,11111222,11144222' 
ADCP,ioos:station:wmo:42369:1,2015-08-01T14:00:00Z,27.2070,-90.2830,60.4,5.4,170.0,99.0,'11111222,11111222,11144222' 
ADCP,ioos:station:wmo:42369:1,2015-08-01T14:20:00Z,27.2070,-90.2830,60.4,4.8,220.0,99.0,'11111222,11111222,11144222' 
ADCP,ioos:station:wmo:42369:1,2015-08-01T14:40:00Z,27.2070,-90.2830,60.4,4.8,220.0,99.0,'11111222,11111222,11144222' 
ADCP,ioos:station:wmo:42369:1,2015-08-01T15:00:00Z,27.2070,-90.2830,60.4,4.8,220.0,99.0,'11111222,11111222,11144222' 
ADCP,ioos:station:wmo:42369:1,2015-08-01T15:20:00Z,27.2070,-90.2830,60.4,4.7,228.0,99.0,'11111222,11111222,11144222' 
ADCP,ioos:station:wmo:42369:1,2015-08-01T15:40:00Z,27.2070,-90.2830,60.4,4.7,228.0,99.0,'11111222,11111222,11144222' 
ADCP,ioos:station:wmo:42369:1,2015-08-01T16:00:00Z,27.2070,-90.2830,60.4,4.3,214.0,99.0,'11111222,11111222,11144222' 
ADCP,ioos:station:wmo:42369:1,2015-08-01T16:20:00Z,27.2070,-90.2830,60.4,4.3,214.0,99.0,'11111222,11111222,11144222' 
ADCP,ioos:station:wmo:42369:1,2015-08-01T16:40:00Z,27.2070,-90.2830,60.4,4.3,214.0,99.0,'11111222,11111222,11144222' 
ADCP,ioos:station:wmo:42369:1,2015-08-01T17:00:00Z,27.2070,-90.2830,60.4,4.3,214.0,99.0,'11111222,11111222,11144222' 
ADCP,ioos:station:wmo:42369:1,2015-08-01T17:20:00Z,27.2070,-90.2830,60.4,4.9,217.0,99.0,'11111222,11111222,11144222' 
ADCP,ioos:station:wmo:42369:1,2015-08-01T17:40:00Z,27.2070,-90.2830,60.4,4.9,217.0,99.0,'11111222,11111222,11144222' 
ADCP,ioos:station:wmo:42369:1,2015-08-01T18:00:00Z,27.2070,-90.2830,60.4,4.6,198.0,99.0,'11111222,11111222,11144222' 
ADCP,ioos:station:wmo:42369:1,2015-08-01T18:20:00Z,27.2070,-90.2830,60.4,4.6,198.0,99.0,'11111222,11111222,11144222' 
ADCP,ioos:station:wmo:42369:1,2015-08-01T18:40:00Z,27.2070,-90.2830,60.4,4.6,198.0,99.0,'11111222,11111222,11144222' 
ADCP,ioos:station:wmo:42369:1,2015-08-01T19:00:00Z,27.2070,-90.2830,60.4,4.6,198.0,99.0,'11111222,11111222,11144222' 
ADCP,ioos:station:wmo:42369:1,2015-08-01T19:20:00Z,27.2070,-90.2830,60.4,4.6,198.0,99.0,'11111222,11111222,11144222' 
ADCP,ioos:station:wmo:42369:1,2015-08-01T19:40:00Z,27.2070,-90.2830,60.4,5.7,222.0,99.0,'11111222,11111222,11144222' 
ADCP,ioos:station:wmo:42369:1,2015-08-01T20:00:00Z,27.2070,-90.2830,60.4,6.1,223.0,99.0,'11111222,11111222,11144222' 
ADCP,ioos:station:wmo:42369:1,2015-08-01T20:20:00Z,27.2070,-90.2830,60.4,6.1,223.0,99.0,'11111222,11111222,11144222' 
ADCP,ioos:station:wmo:42369:1,2015-08-01T20:40:00Z,27.2070,-90.2830,60.4,5.4,214.0,99.0,'11111222,11111222,11144222' 
ADCP,ioos:station:wmo:42369:1,2015-08-01T21:00:00Z,27.2070,-90.2830,60.4,5.4,214.0,99.0,'11111222,11111222,11144222' 
ADCP,ioos:station:wmo:42369:1,2015-08-01T21:20:00Z,27.2070,-90.2830,60.4,5.4,214.0,99.0,'11111222,11111222,11144222' 
ADCP,ioos:station:wmo:42369:1,2015-08-01T21:40:00Z,27.2070,-90.2830,60.4,5.4,214.0,99.0,'11111222,11111222,11144222' 
ADCP,ioos:station:wmo:42369:1,2015-08-01T22:00:00Z,27.2070,-90.2830,60.4,5.4,214.0,99.0,'11111222,11111222,11144222' 
ADCP,ioos:station:wmo:42369:1,2015-08-01T22:20:00Z,27.2070,-90.2830,60.4,5.4,214.0,99.0,'11111222,11111222,11144222' 
ADCP,ioos:station:wmo:42369:1,2015-08-01T22:40:00Z,27.2070,-90.2830,60.4,5.4,214.0,99.0,'11111222,11111222,11144222' 
ADCP,ioos:station:wmo:42369:1,2015-08-01T23:00:00Z,27.2070,-90.2830,60.4,5.4,214.0,99.0,'11111222,11111222,11144222' 
ADCP,ioos:station:wmo:42369:1,2015-08-01T23:20:00Z,27.2070,-90.2830,60.4,6.4,244.0,99.0,'11111222,11111222,11144222' 
ADCP,ioos:station:wmo:42369:1,2015-08-01T23:40:00Z,27.2070,-90.2830,60.4,6.0,240.0,99.0,'11111222,11111222,11144222' 
ADCP,ioos:station:wmo:42369:1,2015-08-02T00:00:00Z,27.2070,-90.2830,60.4,6.4,239.0,99.0,'11111222,11111222,11144222' 
ADCP,ioos:station:wmo:42369:1,2015-08-02T00:20:00Z,27.2070,-90.2830,60.4,5.7,232.0,99.0,'11111222,11111222,11144222' 
ADCP,ioos:station:wmo:42369:1,2015-08-02T00:40:00Z,27.2070,-90.2830,60.4,5.0,226.0,99.0,'11111222,11111222,11144222' 
ADCP,ioos:station:wmo:42369:1,2015-08-02T01:00:00Z,27.2070,-90.2830,60.4,4.8,227.0,99.0,'11111222,11111222,11144222' 
ADCP,ioos:station:wmo:42369:1,2015-08-02T01:20:00Z,27.2070,-90.2830,60.4,4.9,234.0,99.0,'11111222,11111222,11144222' 
ADCP,ioos:station:wmo:42369:1,2015-08-02T01:40:00Z,27.2070,-90.2830,60.4,5.0,231.0,99.0,'11111222,11111222,11144222' 
ADCP,ioos:station:wmo:42369:1,2015-08-02T02:00:00Z,27.2070,-90.2830,60.4,4.7,230.0,99.0,'11111222,11111222,11144222' 
ADCP,ioos:station:wmo:42369:1,2015-08-02T02:20:00Z,27.2070,-90.2830,60.4,4.7,230.0,99.0,'11111222,11111222,11144222' 
ADCP,ioos:station:wmo:42369:1,2015-08-02T02:40:00Z,27.2070,-90.2830,60.4,4.7,210.0,99.0,'11111222,11111222,11144222' 
ADCP,ioos:station:wmo:42369:1,2015-08-02T03:00:00Z,27.2070,-90.2830,60.4,4.7,210.0,99.0,'11111222,11111222,11144222' 
ADCP,ioos:station:wmo:42369:1,2015-08-02T03:20:00Z,27.2070,-90.2830,60.4,4.5,205.0,99.0,'11111222,11111222,11144222' 
ADCP,ioos:station:wmo:42369:1,2015-08-02T03:40:00Z,27.2070,-90.2830,60.4,4.3,212.0,99.0,'11111222,11111222,11144222' 
ADCP,ioos:station:wmo:42369:1,2015-08-02T04:00:00Z,27.2070,-90.2830,60.4,3.9,209.0,99.0,'11111222,11111222,11144222' 
ADCP,ioos:station:wmo:42369:1,2015-08-02T04:20:00Z,27.2070,-90.2830,60.4,3.7,213.0,99.0,'11111222,11111222,11144222' 
ADCP,ioos:station:wmo:42369:1,2015-08-02T04:40:00Z,27.2070,-90.2830,60.4,3.6,205.0,99.0,'11111222,11111222,11144222' 
ADCP,ioos:station:wmo:42369:1,2015-08-02T05:00:00Z,27.2070,-90.2830,60.4,3.6,205.0,99.0,'11111222,11111222,11144222' 
ADCP,ioos:station:wmo:42369:1,2015-08-02T05:20:00Z,27.2070,-90.2830,60.4,4.0,214.0,99.0,'11111222,11111222,11144222' 
ADCP,ioos:station:wmo:42369:1,2015-08-02T05:40:00Z,27.2070,-90.2830,60.4,4.0,214.0,99.0,'11111222,11111222,11144222' 
ADCP,ioos:station:wmo:42369:1,2015-08-02T06:00:00Z,27.2070,-90.2830,60.4,4.8,200.0,99.0,'11111222,11111222,11144222' 
ADCP,ioos:station:wmo:42369:1,2015-08-02T06:20:00Z,27.2070,-90.2830,60.4,4.8,200.0,99.0,'11111222,11111222,11144222' 
ADCP,ioos:station:wmo:42369:1,2015-08-02T06:40:00Z,27.2070,-90.2830,60.4,3.8,182.0,99.0,'11111222,11111222,11144222' 
ADCP,ioos:station:wmo:42369:1,2015-08-02T07:00:00Z,27.2070,-90.2830,60.4,3.8,182.0,99.0,'11111222,11111222,11144222' 
ADCP,ioos:station:wmo:42369:1,2015-08-02T07:20:00Z,27.2070,-90.2830,60.4,3.8,182.0,99.0,'11111222,11111222,11144222' 
ADCP,ioos:station:wmo:42369:1,2015-08-02T07:40:00Z,27.2070,-90.2830,60.4,4.1,179.0,99.0,'11111222,11111222,11144222' 
ADCP,ioos:station:wmo:42369:1,2015-08-02T08:00:00Z,27.2070,-90.2830,60.4,4.1,179.0,99.0,'11111222,11111222,11144222' 
ADCP,ioos:station:wmo:42369:1,2015-08-02T08:20:00Z,27.2070,-90.2830,60.4,4.5,190.0,99.0,'11111222,11111222,11144222' 
ADCP,ioos:station:wmo:42369:1,2015-08-02T08:40:00Z,27.2070,-90.2830,60.4,4.5,190.0,99.0,'11111222,11111222,11144222' 
ADCP,ioos:station:wmo:42369:1,2015-08-02T09:00:00Z,27.2070,-90.2830,60.4,4.8,204.0,99.0,'11111222,11111222,11144222' 
ADCP,ioos:station:wmo:42369:1,2015-08-02T09:20:00Z,27.2070,-90.2830,60.4,4.8,204.0,99.0,'11111222,11111222,11144222' 
ADCP,ioos:station:wmo:42369:1,2015-08-02T09:40:00Z,27.2070,-90.2830,60.4,4.8,204.0,99.0,'11111222,11111222,11144222' 
ADCP,ioos:station:wmo:42369:1,2015-08-02T10:00:00Z,27.2070,-90.2830,60.4,4.8,204.0,99.0,'11111222,11111222,11144222' 
ADCP,ioos:station:wmo:42369:1,2015-08-02T10:20:00Z,27.2070,-90.2830,60.4,4.8,204.0,99.0,'11111222,11111222,11144222' 
ADCP,ioos:station:wmo:42369:1,2015-08-02T10:40:00Z,27.2070,-90.2830,60.4,4.5,196.0,99.0,'11111222,11111222,11144222' 
ADCP,ioos:station:wmo:42369:1,2015-08-02T11:00:00Z,27.2070,-90.2830,60.4,4.5,196.0,99.0,'11111222,11111222,11144222' 
ADCP,ioos:station:wmo:42369:1,2015-08-02T11:20:00Z,27.2070,-90.2830,60.4,4.5,196.0,99.0,'11111222,11111222,11144222' 
ADCP,ioos:station:wmo:42369:1,2015-08-02T11:40:00Z,27.2070,-90.2830,60.4,4.3,208.0,99.0,'11111222,11111222,11144222' 
ADCP,ioos:station:wmo:42369:1,2015-08-02T12:00:00Z,27.2070,-90.2830,60.4,4.3,208.0,99.0,'11111222,11111222,11144222' 
ADCP,ioos:station:wmo:42369:1,2015-08-02T12:20:00Z,27.2070,-90.2830,60.4,4.3,208.0,99.0,'11111222,11111222,11144222' 
ADCP,ioos:station:wmo:42369:1,2015-08-02T12:40:00Z,27.2070,-90.2830,60.4,4.5,211.0,99.0,'11111222,11111222,11144222' 
ADCP,ioos:station:wmo:42369:1,2015-08-02T13:00:00Z,27.2070,-90.2830,60.4,4.5,211.0,99.0,'11111222,11111222,11144222' 
ADCP,ioos:station:wmo:42369:1,2015-08-02T13:20:00Z,27.2070,-90.2830,60.4,4.5,211.0,99.0,'11111222,11111222,11144222' 
ADCP,ioos:station:wmo:42369:1,2015-08-02T13:40:00Z,27.2070,-90.2830,60.4,4.0,196.0,99.0,'11111222,11111222,11144222' 
ADCP,ioos:station:wmo:42369:1,2015-08-02T14:00:00Z,27.2070,-90.2830,60.4,4.0,196.0,99.0,'11111222,11111222,11144222' 
ADCP,ioos:station:wmo:42369:1,2015-08-02T14:20:00Z,27.2070,-90.2830,60.4,4.0,196.0,99.0,'11111222,11111222,11144222' 
ADCP,ioos:station:wmo:42369:1,2015-08-02T14:40:00Z,27.2070,-90.2830,60.4,4.3,203.0,99.0,'11111222,11111222,11144222' 
ADCP,ioos:station:wmo:42369:1,2015-08-02T15:00:00Z,27.2070,-90.2830,60.4,4.3,203.0,99.0,'11111222,11111222,11144222' 
ADCP,ioos:station:wmo:42369:1,2015-08-02T15:20:00Z,27.2070,-90.2830,60.4,5.1,212.0,99.0,'11111222,11111222,11144222' 
ADCP,ioos:station:wmo:42369:1,2015-08-02T15:40:00Z,27.2070,-90.2830,60.4,5.0,200.0,99.0,'11111222,11111222,11144222' 
ADCP,ioos:station:wmo:42369:1,2015-08-02T16:00:00Z,27.2070,-90.2830,60.4,5.0,200.0,99.0,'11111222,11111222,11144222' 
ADCP,ioos:station:wmo:42369:1,2015-08-02T16:20:00Z,27.2070,-90.2830,60.4,5.0,200.0,99.0,'11111222,11111222,11144222' 
ADCP,ioos:station:wmo:42369:1,2015-08-02T16:40:00Z,27.2070,-90.2830,60.4,5.0,200.0,99.0,'11111222,11111222,11144222' 
ADCP,ioos:station:wmo:42369:1,2015-08-02T17:00:00Z,27.2070,-90.2830,60.4,6.0,208.0,99.0,'11111222,11111222,11144222' 
ADCP,ioos:station:wmo:42369:1,2015-08-02T17:20:00Z,27.2070,-90.2830,60.4,6.0,208.0,99.0,'11111222,11111222,11144222' 
ADCP,ioos:station:wmo:42369:1,2015-08-02T17:40:00Z,27.2070,-90.2830,60.4,6.0,208.0,99.0,'11111222,11111222,11144222' 
ADCP,ioos:station:wmo:42369:1,2015-08-02T18:00:00Z,27.2070,-90.2830,60.4,6.0,208.0,99.0,'11111222,11111222,11144222' 
ADCP,ioos:station:wmo:42369:1,2015-08-02T18:20:00Z,27.2070,-90.2830,60.4,3.8,192.0,99.0,'11111222,11111222,11144222' 
ADCP,ioos:station:wmo:42369:1,2015-08-02T18:40:00Z,27.2070,-90.2830,60.4,3.8,192.0,99.0,'11111222,11111222,11144222' 
ADCP,ioos:station:wmo:42369:1,2015-08-02T19:00:00Z,27.2070,-90.2830,60.4,3.8,192.0,99.0,'11111222,11111222,11144222' 
ADCP,ioos:station:wmo:42369:1,2015-08-02T19:20:00Z,27.2070,-90.2830,60.4,4.6,192.0,99.0,'11111222,11111222,11144222' 
ADCP,ioos:station:wmo:42369:1,2015-08-02T19:40:00Z,27.2070,-90.2830,60.4,4.6,192.0,99.0,'11111222,11111222,11144222' 
ADCP,ioos:station:wmo:42369:1,2015-08-02T20:00:00Z,27.2070,-90.2830,60.4,5.2,176.0,99.0,'11111222,11111222,11144222' 
ADCP,ioos:station:wmo:42369:1,2015-08-02T20:20:00Z,27.2070,-90.2830,60.4,5.2,176.0,99.0,'11111222,11111222,11144222' 
ADCP,ioos:station:wmo:42369:1,2015-08-02T20:40:00Z,27.2070,-90.2830,60.4,5.2,176.0,99.0,'11111222,11111222,11144222' 
ADCP,ioos:station:wmo:42369:1,2015-08-02T21:00:00Z,27.2070,-90.2830,60.4,4.9,173.0,99.0,'11111222,11111222,11144222' 
ADCP,ioos:station:wmo:42369:1,2015-08-02T21:20:00Z,27.2070,-90.2830,60.4,4.9,173.0,99.0,'11111222,11111222,11144222' 
ADCP,ioos:station:wmo:42369:1,2015-08-02T21:40:00Z,27.2070,-90.2830,60.4,4.9,173.0,99.0,'11111222,11111222,11144222' 
ADCP,ioos:station:wmo:42369:1,2015-08-02T22:00:00Z,27.2070,-90.2830,60.4,4.9,173.0,99.0,'11111222,11111222,11144222' 
ADCP,ioos:station:wmo:42369:1,2015-08-02T22:20:00Z,27.2070,-90.2830,60.4,4.9,173.0,99.0,'11111222,11111222,11144222' 
ADCP,ioos:station:wmo:42369:1,2015-08-02T22:40:00Z,27.2070,-90.2830,60.4,4.9,173.0,99.0,'11111222,11111222,11144222' 
ADCP,ioos:station:wmo:42369:1,2015-08-02T23:00:00Z,27.2070,-90.2830,60.4,4.9,173.0,99.0,'11111222,11111222,11144222' 
ADCP,ioos:station:wmo:42369:1,2015-08-02T23:19:00Z,27.2070,-90.2830,60.4,4.9,173.0,99.0,'11111222,11111222,11144222' 
ADCP,ioos:station:wmo:42369:1,2015-08-02T23:39:00Z,27.2070,-90.2830,60.4,4.9,173.0,99.0,'11111222,11111222,11144222' 
ADCP,ioos:station:wmo:42369:1,2015-08-03T00:00:00Z,27.2070,-90.2830,60.4,4.8,193.0,99.0,'11111222,11111222,11144222' 
ADCP,ioos:station:wmo:42369:1,2015-08-03T00:20:00Z,27.2070,-90.2830,60.4,4.8,193.0,99.0,'11111222,11111222,11144222' 
ADCP,ioos:station:wmo:42369:1,2015-08-03T00:40:00Z,27.2070,-90.2830,60.4,5.2,192.0,99.0,'11111222,11111222,11144222' 
ADCP,ioos:station:wmo:42369:1,2015-08-03T01:00:00Z,27.2070,-90.2830,60.4,5.5,190.0,99.0,'11111222,11111222,11144222' 
ADCP,ioos:station:wmo:42369:1,2015-08-03T01:20:00Z,27.2070,-90.2830,60.4,5.5,190.0,99.0,'11111222,11111222,11144222' 
ADCP,ioos:station:wmo:42369:1,2015-08-03T01:40:00Z,27.2070,-90.2830,60.4,5.5,199.0,99.0,'11111222,11111222,11144222' 
ADCP,ioos:station:wmo:42369:1,2015-08-03T02:00:00Z,27.2070,-90.2830,60.4,5.5,199.0,99.0,'11111222,11111222,11144222' 
ADCP,ioos:station:wmo:42369:1,2015-08-03T02:20:00Z,27.2070,-90.2830,60.4,5.4,201.0,99.0,'11111222,11111222,11144222' 
ADCP,ioos:station:wmo:42369:1,2015-08-03T02:40:00Z,27.2070,-90.2830,60.4,4.6,200.0,99.0,'11111222,11111222,11144222' 
ADCP,ioos:station:wmo:42369:1,2015-08-03T03:00:00Z,27.2070,-90.2830,60.4,4.6,200.0,99.0,'11111222,11111222,11144222' 
ADCP,ioos:station:wmo:42369:1,2015-08-03T03:20:00Z,27.2070,-90.2830,60.4,4.8,197.0,99.0,'11111222,11111222,11144222' 
ADCP,ioos:station:wmo:42369:1,2015-08-03T03:40:00Z,27.2070,-90.2830,60.4,4.7,204.0,99.0,'11111222,11111222,11144222' 
ADCP,ioos:station:wmo:42369:1,2015-08-03T04:00:00Z,27.2070,-90.2830,60.4,4.7,204.0,99.0,'11111222,11111222,11144222' 
ADCP,ioos:station:wmo:42369:1,2015-08-03T04:20:00Z,27.2070,-90.2830,60.4,4.1,197.0,99.0,'11111222,11111222,11144222' 
ADCP,ioos:station:wmo:42369:1,2015-08-03T04:40:00Z,27.2070,-90.2830,60.4,4.1,197.0,99.0,'11111222,11111222,11144222' 
ADCP,ioos:station:wmo:42369:1,2015-08-03T05:00:00Z,27.2070,-90.2830,60.4,4.2,192.0,99.0,'11111222,11111222,11144222' 
ADCP,ioos:station:wmo:42369:1,2015-08-03T05:20:00Z,27.2070,-90.2830,60.4,4.0,188.0,99.0,'11111222,11111222,11144222' 
ADCP,ioos:station:wmo:42369:1,2015-08-03T05:40:00Z,27.2070,-90.2830,60.4,4.0,188.0,99.0,'11111222,11111222,11144222' 
ADCP,ioos:station:wmo:42369:1,2015-08-03T06:00:00Z,27.2070,-90.2830,60.4,3.9,181.0,99.0,'11111222,11111222,11144222' 
ADCP,ioos:station:wmo:42369:1,2015-08-03T06:20:00Z,27.2070,-90.2830,60.4,3.9,181.0,99.0,'11111222,11111222,11144222' 
ADCP,ioos:station:wmo:42369:1,2015-08-03T06:40:00Z,27.2070,-90.2830,60.4,4.6,171.0,99.0,'11111222,11111222,11144222' 
ADCP,ioos:station:wmo:42369:1,2015-08-03T07:00:00Z,27.2070,-90.2830,60.4,4.5,166.0,99.0,'11111222,11111222,11144222' 
ADCP,ioos:station:wmo:42369:1,2015-08-03T07:20:00Z,27.2070,-90.2830,60.4,4.3,172.0,99.0,'11111222,11111222,11144222' 
ADCP,ioos:station:wmo:42369:1,2015-08-03T07:40:00Z,27.2070,-90.2830,60.4,4.5,168.0,99.0,'11111222,11111222,11144222' 
ADCP,ioos:station:wmo:42369:1,2015-08-03T08:00:00Z,27.2070,-90.2830,60.4,4.6,169.0,99.0,'11111222,11111222,11144222' 
ADCP,ioos:station:wmo:42369:1,2015-08-03T08:20:00Z,27.2070,-90.2830,60.4,4.6,169.0,99.0,'11111222,11111222,11144222' 
ADCP,ioos:station:wmo:42369:1,2015-08-03T08:40:00Z,27.2070,-90.2830,60.4,4.6,169.0,99.0,'11111222,11111222,11144222' 
ADCP,ioos:station:wmo:42369:1,2015-08-03T09:00:00Z,27.2070,-90.2830,60.4,4.6,169.0,99.0,'11111222,11111222,11144222' 
ADCP,ioos:station:wmo:42369:1,2015-08-03T09:20:00Z,27.2070,-90.2830,60.4,4.6,169.0,99.0,'11111222,11111222,11144222' 
ADCP,ioos:station:wmo:42369:1,2015-08-03T09:40:00Z,27.2070,-90.2830,60.4,4.6,169.0,99.0,'11111222,11111222,11144222' 
ADCP,ioos:station:wmo:42369:1,2015-08-03T10:00:00Z,27.2070,-90.2830,60.4,4.6,169.0,99.0,'11111222,11111222,11144222' 
ADCP,ioos:station:wmo:42369:1,2015-08-03T10:20:00Z,27.2070,-90.2830,60.4,4.6,169.0,99.0,'11111222,11111222,11144222' 
ADCP,ioos:station:wmo:42369:1,2015-08-03T10:40:00Z,27.2070,-90.2830,60.4,4.6,169.0,99.0,'11111222,11111222,11144222' 
ADCP,ioos:station:wmo:42369:1,2015-08-03T11:00:00Z,27.2070,-90.2830,60.4,4.1,199.0,99.0,'11111222,11111222,11144222' 
ADCP,ioos:station:wmo:42369:1,2015-08-03T11:20:00Z,27.2070,-90.2830,60.4,4.1,199.0,99.0,'11111222,11111222,11144222' 
ADCP,ioos:station:wmo:42369:1,2015-08-03T11:40:00Z,27.2070,-90.2830,60.4,4.1,199.0,99.0,'11111222,11111222,11144222' 
ADCP,ioos:station:wmo:42369:1,2015-08-03T12:00:00Z,27.2070,-90.2830,60.4,4.1,199.0,99.0,'11111222,11111222,11144222' 
ADCP,ioos:station:wmo:42369:1,2015-08-03T12:20:00Z,27.2070,-90.2830,60.4,4.5,173.0,99.0,'11111222,11111222,11144222' 
ADCP,ioos:station:wmo:42369:1,2015-08-03T12:40:00Z,27.2070,-90.2830,60.4,4.5,173.0,99.0,'11111222,11111222,11144222' 
ADCP,ioos:station:wmo:42369:1,2015-08-03T13:00:00Z,27.2070,-90.2830,60.4,4.5,173.0,99.0,'11111222,11111222,11144222' 
ADCP,ioos:station:wmo:42369:1,2015-08-03T13:20:00Z,27.2070,-90.2830,60.4,4.5,173.0,99.0,'11111222,11111222,11144222' 
ADCP,ioos:station:wmo:42369:1,2015-08-03T13:40:00Z,27.2070,-90.2830,60.4,4.5,173.0,99.0,'11111222,11111222,11144222' 
ADCP,ioos:station:wmo:42369:1,2015-08-03T14:00:00Z,27.2070,-90.2830,60.4,4.5,173.0,99.0,'11111222,11111222,11144222' 
ADCP,ioos:station:wmo:42369:1,2015-08-03T14:20:00Z,27.2070,-90.2830,60.4,4.5,173.0,99.0,'11111222,11111222,11144222' 
ADCP,ioos:station:wmo:42369:1,2015-08-03T14:40:00Z,27.2070,-90.2830,60.4,4.5,173.0,99.0,'11111222,11111222,11144222' 
ADCP,ioos:station:wmo:42369:1,2015-08-03T15:00:00Z,27.2070,-90.2830,60.4,3.9,177.0,99.0,'11111222,11111222,11144222' 
ADCP,ioos:station:wmo:42369:1,2015-08-03T15:20:00Z,27.2070,-90.2830,60.4,3.9,177.0,99.0,'11111222,11111222,11144222' 
ADCP,ioos:station:wmo:42369:1,2015-08-03T15:40:00Z,27.2070,-90.2830,60.4,3.9,177.0,99.0,'11111222,11111222,11144222' 
ADCP,ioos:station:wmo:42369:1,2015-08-03T16:00:00Z,27.2070,-90.2830,60.4,3.7,189.0,99.0,'11111222,11111222,11144222' 
ADCP,ioos:station:wmo:42369:1,2015-08-03T16:20:00Z,27.2070,-90.2830,60.4,3.8,179.0,99.0,'11111222,11111222,11144222' 
ADCP,ioos:station:wmo:42369:1,2015-08-03T16:40:00Z,27.2070,-90.2830,60.4,3.8,179.0,99.0,'11111222,11111222,11144222' 
ADCP,ioos:station:wmo:42369:1,2015-08-03T17:00:00Z,27.2070,-90.2830,60.4,3.8,179.0,99.0,'11111222,11111222,11144222' 
ADCP,ioos:station:wmo:42369:1,2015-08-03T17:20:00Z,27.2070,-90.2830,60.4,4.0,187.0,99.0,'11111222,11111222,11144222' 
ADCP,ioos:station:wmo:42369:1,2015-08-03T17:40:00Z,27.2070,-90.2830,60.4,3.4,191.0,99.0,'11111222,11111222,11144222' 
ADCP,ioos:station:wmo:42369:1,2015-08-03T18:00:00Z,27.2070,-90.2830,60.4,3.1,191.0,99.0,'11111222,11111222,11144222' 
ADCP,ioos:station:wmo:42369:1,2015-08-03T18:20:00Z,27.2070,-90.2830,60.4,3.1,191.0,99.0,'11111222,11111222,11144222' 
ADCP,ioos:station:wmo:42369:1,2015-08-03T18:40:00Z,27.2070,-90.2830,60.4,3.0,174.0,99.0,'11111222,11111222,11144222' 
ADCP,ioos:station:wmo:42369:1,2015-08-03T19:00:00Z,27.2070,-90.2830,60.4,2.5,181.0,99.0,'11111222,11111222,11144222' 